Flag for Central African Republic Weather past 2 weeks in Bimbo, Central African Republic

Now
75 °F

Broken clouds.


Feels Like: 75 °F
Forecast: 73 / 91 °F
Wind: 1 mph from Northeast

Location: Bangui Airport


UV Index: 10 (Very high)

Visibility: 5 mi


Pressure: 29.95 "Hg

Humidity: 89%

Dew point: 72 °F

Location of BimboLocation

Historic Weather in Bimbo

°F

Bimbo temperature yesterday

Maximum temperature yesterday: 86 °F (at 2:00 PM)
Minimum temperature yesterday: 73 °F (at 4:00 AM)
Average temperature yesterday: 79 °F

Past Weeks' High & Low Weather Summary

 TemperatureHumidityPressure
High97 °F (Apr 9, 1:00 PM)100% (Apr 2, 8:00 PM)30.01 "Hg (Apr 2, 8:00 PM)
Low68 °F (Apr 3, 3:00 AM)42% (Apr 9, 1:00 PM)29.71 "Hg (Apr 9, 5:00 PM)
Average78 °F82%29.85 "Hg
* Reported Apr 2 6:00 AM — Apr 17 6:00 AM, Bimbo, Weather by CustomWeather, © 2014

Note: Actual official high and low records may vary slightly from our data, if they occured in-between our weather recording intervals... More about our weather records

Advertising

Historic Weather Conditions — Data for Previous 24 hours

 ConditionsComfort  
Time TempWeatherWind HumidityBarometerVisibility
6:00 AM
Apr 17
72 °FPartly sunny.2 mph100%29.92 "Hg4 mi
4:00 AM72 °FPassing clouds.No wind100%29.86 "Hg4 mi
3:00 AM72 °FPassing clouds.No wind100%29.86 "Hg4 mi
2:00 AM72 °FClear.No wind100%29.86 "Hg4 mi
1:00 AM72 °FClear.No wind100%29.86 "Hg4 mi
12:00 AM73 °FClear.No wind94%29.89 "Hg4 mi
11:00 PM
Apr 16
73 °FPassing clouds.2 mph94%29.89 "Hg4 mi
10:00 PM73 °FPassing clouds.No wind100%29.89 "Hg4 mi
9:00 PM75 °FPassing clouds.No wind94%29.86 "Hg4 mi
8:00 PM77 °FClear.No wind89%29.83 "Hg4 mi
7:00 PM79 °FPassing clouds.2 mph79%29.80 "Hg4 mi
6:00 PM81 °FPassing clouds.2 mph70%29.80 "HgN/A
5:00 PM82 °FPartly sunny.3 mph66%29.77 "HgN/A
4:00 PM86 °FPartly sunny.6 mph59%29.77 "HgN/A
3:00 PM86 °FPartly sunny.5 mph59%29.77 "HgN/A
2:00 PM86 °FSunny.3 mph59%29.83 "Hg10 mi
1:00 PM84 °FSunny.No wind58%29.86 "Hg10 mi
12:00 PM81 °FPartly sunny.2 mph70%29.89 "HgN/A
11:00 AM81 °FPartly sunny.3 mph70%29.95 "HgN/A
10:00 AM79 °FBroken clouds.15 mph79%30.01 "HgN/A
9:00 AM79 °FBroken clouds.10 mph84%30.01 "HgN/A
8:00 AM77 °FPartly sunny.1 mph89%29.92 "HgN/A
Weather by CustomWeather, © 2014

See weather overview